Regional Weather Roundup
Issued by NWS

Home | Current Version | Previous Version | Graphics & Text | Print | Product List | Glossary On
Versions: 1 2 3 4 5 6 7 8 9 10 11 12 13 14 15 16 17 18 19 20 21 22 23 24 25 26 27 28 29 30 31 32 33 34 35 36 37 38 39 40 41 42 43 44 45 46 47 48 49 50
000
ASUS43 KBIS 161610
RWRND

NORTH DAKOTA REGIONAL WEATHER ROUNDUP
NATIONAL WEATHER SERVICE BISMARCK ND
1100 AM CDT MON OCT 16 2017

NOTE: "FAIR" INDICATES FEW OR NO CLOUDS BELOW 12,000 FEET WITH NO
SIGNIFICANT WEATHER AND/OR OBSTRUCTIONS TO VISIBILITY.


NDZ001>003-009>011-017-161700-
NORTHWEST NORTH DAKOTA

CITY           SKY/WX    TMP DP  RH WIND       PRES   REMARKS
WILLISTON      SUNNY     53  36  52 SW13      29.94S
MINOT          SUNNY     59  35  40 SW20      29.88S
MINOT AFB      SUNNY     57  35  44 W21G28    29.86S
$$

NDZ018>021-031>035-040>046-161700-
SOUTHWEST NORTH DAKOTA

CITY           SKY/WX    TMP DP  RH WIND       PRES   REMARKS
BISMARCK       SUNNY     59  33  37 W15G22    29.99F
DICKINSON      CLOUDY    56  31  38 W20       29.99S
GARRISON         N/A     55  36  48 W14       29.93F
HETTINGER ARPT MOSUNNY   51  30  44 W10       30.06S
$$

NDZ004>008-012>016-024-026-027-054-161700-
NORTHEAST NORTH DAKOTA

CITY           SKY/WX    TMP DP  RH WIND       PRES   REMARKS
GRAND FORKS    MOSUNNY   55  36  48 S17       29.91F
GRND FRKS AFB  SUNNY     56  33  42 S17       29.90F
DEVILS LAKE    SUNNY     52  35  52 SW17      29.90F
$$

NDZ022-023-025-028>030-036>039-047>053-161700-
SOUTHEAST NORTH DAKOTA

CITY           SKY/WX    TMP DP  RH WIND       PRES   REMARKS
FARGO          SUNNY     51  37  58 S14G23    30.01F
JAMESTOWN      SUNNY     59  33  37 SW20      29.96F
$$





USA.gov is the U.S. government's official web portal to all federal, state and local government web resources and services.